Regional Weather Roundup
Issued by NWS Portland, ME

Home | Current Version | Previous Version | Text Only | Print | Product List | Glossary On
Versions: 1 2 3 4 5 6 7 8 9 10 11 12 13 14 15 16 17 18 19 20 21 22 23 24 25 26 27 28 29 30 31 32 33 34 35 36 37 38 39 40 41 42 43 44 45 46 47 48 49 50
000
ASUS41 KGYX 290110
RWRGYX
WEATHER ROUNDUP FOR MAINE AND NEW HAMPSHIRE
NATIONAL WEATHER SERVICE GRAY ME
900 PM EDT THU APR 28 2016

MEZ002-005-006-010-012-015-018-020-021-024-026-027-029-290200-
MAINE

CITY           SKY/WX    TMP DP  RH WIND       PRES   REMARKS
PORTLAND       PTCLDY    41  29  62 N3        30.12R
SANFORD        PTCLDY    36  27  69 CALM      30.11R
BAR HARBOR     CLEAR     38  22  52 CALM      30.15R
WISCASSET      CLEAR     38  29  70 CALM      30.14R
ROCKLAND       CLEAR     39  30  70 SW5       30.13R
FRYEBURG       CLEAR     37  19  48 VRB3      30.10R
LEWISTONAUBURN CLEAR     39  21  48 CALM      30.11R
AUGUSTA        CLEAR     42  12  29 N9        30.12R
WATERVILLE     CLEAR     39  15  37 N8        30.10R
BANGOR         CLOUDY    40  13  33 NW10      30.14R
GREENVILLE       N/A     31  10  41 N8        30.08R
MILLINOCKET    CLEAR     36   7  29 N9        30.15R
HOULTON        CLEAR     29   8  41 N3        30.13R
PRESQUE ISLE   CLEAR     30  10  43 NW5       30.15R
FRENCHVILLE    CLEAR     27   5  39 W9        30.11R
CARIBOU        CLEAR     28   9  44 CALM      30.12R
$$

NHZ002-005-008-009-011-012-014-290200-
NEW HAMPSHIRE

CITY           SKY/WX    TMP DP  RH WIND       PRES   REMARKS
PORTSMOUTH     MOCLDY    44  35  70 E8        30.08R
ROCHESTER      CLOUDY    42  30  62 S5        30.08R
NASHUA         CLOUDY    50  27  40 E7        30.07R
MANCHESTER     CLOUDY    48  26  42 NE7       30.05R
CONCORD        CLOUDY    47  28  47 E8        30.07R
LACONIA        CLOUDY    43  21  42 NW3       30.07R
PLYMOUTH       FAIR      40  30  67 CALM      30.08R
BERLIN         CLOUDY    30  15  53 CALM      30.11R
WHITEFIELD     CLOUDY    38  12  34 CALM      30.10R
JAFFREY        CLOUDY    50  24  36 CALM      30.03R
KEENE          CLOUDY    48  28  46 CALM      30.03R
LEBANON        CLOUDY    46  20  35 N9        30.08R
MT WASHINGTON  MOCLDY    19   5  53 W24         N/A  WCI   2
$$

VTZ005-007-008-290200-
VERMONT

CITY           SKY/WX    TMP DP  RH WIND       PRES   REMARKS
ST JOHNSBURY     N/A     39  15  37 MISG      30.10R
MONTPELIER     FAIR      38  15  39 NE8       30.14R
BURLINGTON     FAIR      40  17  39 N5        30.14R
$$

MAZ007-012-024-CTZ003-RIZ002-NYZ038-NYZ072-290200-
SOUTHERN NEW ENGLAND AND NY

CITY           SKY/WX    TMP DP  RH WIND       PRES   REMARKS
BOSTON         CLOUDY    48  31  51 S10       30.08R
WORCESTER      CLOUDY    46  30  53 S9        30.04R
NANTUCKET      CLOUDY    46  34  62 SE12      30.09R
PROVIDENCE     CLOUDY    47  35  63 S10       30.09R
HARTFORD       CLOUDY    50  35  56 S12       30.03R
ALBANY         CLOUDY    49  26  41 N10       30.05R
NEW YORK CITY  CLOUDY    51  31  46 S7        30.04S
$$

ANZ081-ANZ082-ANZ150-NHZ014-MEZ023>029-290200-
COASTAL MARINE OBSERVATIONS

STATION/POSITION TIME  TEMP    WIND        PRES    WAVE
                       AIR SEA DIR/SP/G            HT/PER
                 (UTC) (F)     (DEG/KT/KT) (MB)    (FT/S)
MOUNT DESERT ROC 0100   41     230/ 10/ 11 1020.7R
MATINICUS ROCK   0100   41     210/ 11/ 13 1020.0R
ISLE OF SHOALS   0100   44     130/ 14/ 15 1018.4R
CASHES LEDGE BUO 0050   43 44  190/ 12/ 12 1019.8R   3/ 8
GEORGES BANK BUO 2350   43 46              1019.8    5/ 9
$$

.............KEY..............
   WCI - WIND CHILL
   TC  - TEMPERATURE IN CELSIUS
   VSB - VISIBILITY IN MILES
   HX  - HEAT INDEX
   FAIR- INDICATES FEW OR NO CLOUDS BELOW 12,000 FT, WITH NO
         SIGNIFICANT WEATHER AND/OR OBSTRUCTIONS TO VISIBILITY.






USA.gov is the U.S. government's official web portal to all federal, state and local government web resources and services.